Miscellaneous Local Product
Issued by NWS North Platte, NE

Home | Current Version | Previous Version | Text Only | Print | Product List | Glossary On
Versions: 1 2 3 4 5 6 7 8 9 10 11 12 13 14 15 16 17 18 19 20 21 22 23 24 25 26 27 28 29 30 31 32 33 34 35 36 37 38 39 40 41 42 43 44 45 46 47 48 49 50
000
AXUS43 KLBF 310010
MISLBF


WESTERN AND NORTH CENTRAL NEBRASKA HOURLY WEATHER ROUNDUP
NATIONAL WEATHER SERVICE NORTH PLATTE NE
700 PM CDT SUN AUG 30 2015

NOTE: "FAIR" INDICATES FEW OR NO CLOUDS BELOW 12,000 FEET WITH NO
SIGNIFICANT WEATHER AND/OR OBSTRUCTIONS TO VISIBILITY.

NOTE: STATIONS NOT REPORTING VARIABLES SUCH AS SKY/WEATHER OR
PRESSURE ARE PROVIDED BY THE NEBRASKA DEPARTMENT OF
ROADS...RAWS...AND APRS NETWORKS...AND ARE NOT UNDER
NATIONAL WEATHER SERVICE QUALITY CONTROL.

...OBSERVATIONS IN AND NEAR THE EASTERN PANHANDLE OF NEBRASKA...

CITY           SKY/WX    TMP DP  RH WIND       PRES   REMARKS
PINE RIDGE     SUNNY     94  45  18 S9        29.77F HX  90
CHADRON        SUNNY     99  40  13 S9        29.75S HX  94
ALLIANCE       SUNNY     96  41  15 SE9       29.83F HX  92
SIDNEY         SUNNY     95  33  11 SW13      29.89F HX  90
BIG SPRINGS      N/A     90  47  22 S16         N/A
$$

...OBSERVATIONS IN NORTH CENTRAL NEBRASKA...

CITY           SKY/WX    TMP DP  RH WIND       PRES   REMARKS
VALENTINE      CLOUDY    92  43  18 S18       29.79F
THEDFORD       SUNNY     90  46  21 S14G23    29.88S
AINSWORTH      MOSUNNY   87  54  32 S18G24    29.84F
O`NEILL        SUNNY     80  69  68 SE15      29.88S
ORD            SUNNY     81  64  56 S12G22    29.90F
BROKEN BOW     SUNNY     83  63  50 S15G25    29.91F
SPRINGVIEW       N/A     89  56  32 S3G12       N/A
SARGENT          N/A     84  63  48 CALM        N/A
CHAMBERS         N/A     79  67  67 W6G13       N/A
EWING            N/A     74  65  73 S6          N/A
$$

...OBSERVATIONS IN SOUTHWEST NEBRASKA AND FAR NORTHEAST COLORADO...

CITY           SKY/WX    TMP DP  RH WIND       PRES   REMARKS
WRAY           CLOUDY    94  41  16 S16G23    29.92S
HOLYOKE        FAIR      91  46  21 S16G25    29.90S
IMPERIAL       SUNNY     91  38  15 S18G25    29.90F
OGALLALA       SUNNY     90  44  20 S17G25    29.86F
NORTH PLATTE   SUNNY     88  40  18 S14G22    29.88F
MCCOOK         SUNNY     90  40  17 S13G21    29.90F HAZE
LEXINGTON      SUNNY     82  63  52 SE15G23   29.92F
PAXTON           N/A     86  50  28 SE12        N/A
BRADY            N/A     87  48  25 CALM        N/A
CALLAWAY         N/A     78  66  66 SE12        N/A
$$

...OBSERVATIONS IN CENTRAL LINCOLN COUNTY AREA...

CITY           SKY/WX    TMP DP  RH WIND       PRES   REMARKS
N.P. AIRPORT   SUNNY     88  40  18 S14G22    29.88F
N.P. DOWNTOWN    N/A     89  45  21 S3G14       N/A
N.P. SOUTHEAST   N/A     88  43  20 S9G17       N/A
HILLCREST        N/A     86  46  24 S9          N/A
$$

...SOME OBSERVATIONS FROM AROUND THE REGION...

CITY           SKY/WX    TMP DP  RH WIND       PRES   REMARKS
DENVER         MOSUNNY   93  30  10 SE5       29.97F
LARAMIE        CLOUDY    77  39  25 SW7       30.14F
CHEYENNE       PTSUNNY   85  39  19 SW3       30.04R
SCOTTSBLUFF    SUNNY     91  54  28 E6        29.83F
RAPID CITY     MOSUNNY   86  59  39 N13       29.73S
PIERRE         MOSUNNY   91  55  29 SE14      29.67F HAZE
WINNER         FAIR      90  47  22 S20G28    29.76S
SIOUX FALLS    CLOUDY    73  65  75 S9        29.90F
OMAHA          MOSUNNY   75  67  76 S12       29.96F
GRAND ISLAND   SUNNY     76  66  71 SE10      29.96F
KANSAS CITY    PTCLDY    82  64  54 SE8       29.96F
WICHITA        MOSUNNY   82  64  54 SE7       29.95S
HAYS           SUNNY     86  54  32 SE13      29.94F
LIBERAL        SUNNY     90  43  19 SE8       29.98S
GOODLAND       SUNNY     87  40  19 S21       29.95F HAZE
$$



USA.gov is the U.S. government's official web portal to all federal, state and local government web resources and services.